Starlink 30573

operational
NORAD ID: 58058 Int'l Des: 2023-158 Owner: SPXS Country: US Constellation: starlink
LEOCIRCULAR

Über Starlink 30573

Beschreibung wird geladen...

Live-Position

3D-Globus wird geladen...

Nächste Überflüge

Höhenverlauf

Altitude vs Time

uPlot chart will show altitude changes over time

Zweizeiliger Elementsatz

1 58058U 23158H 25306.46871610 .00000584 00000-0 58304-4 0 9995
2 58058 43.0029 1.6476 0001349 270.5111 89.5577 15.02534230114398
Epoch: 2. Nov. 2025 • Age: 34 hours

Aktueller Status

Höhe 561.8 km
Geschwindigkeit 7.59 km/s
Subsatellitenpunkt 36.82°N, 118.37°E
Startdatum 13. Okt. 2023
Alter 2 years
Typ internet

Technische Details

Klassifizierung Payload
Masse 730.00 kg
Trockenmasse 700.00 kg
Gesamtmasse 730.00 kg
Länge 0.30 m
Durchmesser 4.10 m
Spannweite 29.00 m
Form Box + pan
Hersteller SPXS
Bus-Typ Starlink V2M
Phasenstatus In Orbit
Besitzer/Staat SPXS/US

Große Konstellationen

Loading constellations...